Date,TemperatureHighF,TemperatureAvgF,TemperatureLowF,DewpointHighF,DewpointAvgF,DewpointLowF,HumidityHigh,HumidityAvg,HumidityLow,PressureMaxIn,PressureMinIn,WindSpeedMaxMPH,WindSpeedAvgMPH,GustSpeedMaxMPH,PrecipitationSumIn
2013-1-1,42,26,16,10,1,-7,44,34,17,0.00,40.00,6,2,18,0.01
2013-1-2,43,31,22,5,2,-2,44,31,18,0.00,40.00,7,4,26,0.00
2013-1-3,47,34,27,5,-3,-27,36,22,6,0.00,40.00,7,2,26,0.00
2013-1-4,56,34,24,8,-7,-28,42,21,4,0.00,40.00,2,0,7,0.01
2013-1-5,57,34,23,12,3,-5,44,28,8,0.00,40.00,2,0,14,0.01
2013-1-6,36,30,25,25,17,-4,91,64,19,0.00,40.00,7,2,17,0.00
2013-1-7,39,29,21,23,14,1,91,58,26,0.00,40.00,7,4,22,0.00
2013-1-8,53,40,31,27,19,6,71,44,22,0.00,40.00,8,3,26,0.20
2013-1-9,63,40,31,25,20,15,71,48,19,0.00,40.00,3,1,13,0.01
2013-1-10,38,25,14,27,16,8,88,74,35,0.00,40.00,8,3,19,0.01
2013-1-11,30,17,12,14,12,8,87,79,50,0.00,40.00,3,1,15,0.00
2013-1-12,32,13,2,12,1,-10,85,65,19,0.00,40.00,3,0,9,0.00
2013-1-13,34,14,3,7,0,-5,82,59,18,0.00,40.00,2,0,12,0.00
2013-1-14,24,15,6,0,-7,-13,60,37,21,0.00,40.00,10,6,29,0.00
2013-1-15,37,30,23,16,13,3,59,49,42,0.00,40.00,10,8,30,0.00
2013-1-16,50,38,32,18,13,2,52,37,23,0.00,40.00,10,5,31,0.12
2013-1-17,55,38,32,10,5,1,32,25,14,0.00,40.00,5,3,17,0.04
2013-1-18,59,40,34,15,6,-13,31,24,11,0.00,40.00,4,1,11,0.00
2013-1-19,56,40,32,4,-4,-16,27,16,6,0.00,40.00,4,1,12,0.00
2013-1-20,60,38,31,7,-5,-15,23,16,5,0.00,40.00,4,1,21,0.00
2013-1-21,57,40,33,2,-3,-13,22,16,6,0.00,40.00,6,2,21,0.00
2013-1-22,64,43,29,15,2,-15,32,18,6,0.00,40.00,3,0,11,0.00
2013-1-23,62,45,40,34,26,15,76,47,27,0.00,40.00,5,1,20,0.03
2013-1-24,54,41,35,44,37,32,96,87,62,0.00,40.00,4,1,17,0.24
2013-1-25,49,41,37,43,38,35,96,91,73,0.00,40.00,0,0,6,0.25
2013-1-26,48,39,30,44,37,29,97,94,78,0.00,40.00,2,0,8,0.19
2013-1-27,38,32,21,31,27,18,96,83,68,0.00,40.00,8,4,20,0.01
2013-1-28,31,21,9,22,17,5,91,83,57,0.00,40.00,3,1,12,0.00
2013-1-29,52,29,10,25,16,6,89,62,29,0.00,40.00,6,2,21,0.40
2013-1-30,56,42,34,28,20,17,57,43,27,0.00,40.00,8,3,24,0.01
2013-1-31,52,41,32,27,23,18,66,50,34,0.00,40.00,6,2,17,0.00
2013-2-1,60,40,29,28,22,16,70,51,20,0.00,40.00,2,0,9,0.00
2013-2-2,57,43,32,31,24,18,69,48,26,0.00,40.00,1,0,7,0.00
2013-2-3,49,38,29,37,31,25,96,76,49,0.00,40.00,4,1,11,0.12
2013-2-4,54,39,29,27,22,8,85,55,29,0.00,40.00,5,1,14,0.02
2013-2-5,60,39,28,23,13,5,60,37,13,0.00,40.00,4,1,11,0.00
2013-2-6,52,35,26,23,11,1,68,40,13,0.00,40.00,5,1,14,0.00
2013-2-7,57,36,24,24,9,-7,77,37,7,0.00,40.00,5,2,17,0.00
2013-2-8,28,24,20,24,20,17,92,85,78,0.00,40.00,7,4,19,0.00
2013-2-9,39,22,12,23,16,7,90,80,43,0.00,40.00,2,0,12,0.14
2013-2-10,43,21,10,21,13,5,90,73,33,0.00,40.00,2,0,9,0.09
2013-2-11,34,25,20,21,7,-4,89,51,25,0.00,40.00,7,4,26,0.01
2013-2-12,43,31,22,12,5,-1,54,34,25,0.00,40.00,6,3,18,0.04
2013-2-13,53,37,32,19,14,8,56,39,23,0.00,40.00,6,2,19,0.01
2013-2-14,49,39,32,23,18,13,56,43,28,0.00,40.00,8,3,22,0.00
2013-2-15,52,42,35,17,8,-15,43,26,10,0.00,40.00,8,5,28,0.00
2013-2-16,63,42,26,13,0,-19,47,21,3,0.00,40.00,4,1,18,0.00
2013-2-17,54,37,25,14,9,1,61,34,17,0.00,40.00,4,1,17,0.00
2013-2-18,58,35,23,12,6,-12,54,33,6,0.00,40.00,4,1,16,0.00
2013-2-19,48,28,20,27,16,-13,93,67,8,0.00,40.00,8,3,18,0.00
2013-2-20,36,21,11,31,18,7,91,86,75,0.00,40.00,4,1,15,0.02
2013-2-21,39,21,9,21,8,2,86,62,36,0.00,40.00,3,1,12,0.01
2013-2-22,52,28,17,17,8,1,68,45,17,0.00,40.00,3,0,10,0.26
2013-2-23,55,31,21,24,16,7,88,58,18,0.00,40.00,11,2,24,0.08
2013-2-24,34,27,20,7,-1,-9,44,29,18,0.00,40.00,12,8,36,0.01
2013-2-25,52,33,22,12,1,-9,45,27,13,0.00,40.00,6,1,15,0.00
2013-2-26,46,34,22,12,5,-6,51,30,18,0.00,40.00,5,2,16,0.00
2013-2-27,44,35,28,9,2,-4,34,24,17,0.00,40.00,6,3,17,0.00
2013-2-28,52,41,32,11,4,-3,30,22,16,0.00,40.00,5,2,17,0.00
2013-3-1,58,45,35,18,11,4,36,25,19,0.00,40.00,7,3,22,0.00
2013-3-2,69,43,32,18,12,7,43,30,10,0.00,40.00,4,0,12,0.00
2013-3-3,55,43,33,30,20,5,85,42,20,0.00,40.00,9,5,24,0.00
2013-3-4,58,38,30,31,27,10,90,68,29,0.00,40.00,4,1,14,0.00
2013-3-5,59,43,29,30,18,6,70,40,21,0.00,40.00,6,2,25,0.00
2013-3-6,54,37,26,29,22,8,86,59,24,0.00,40.00,6,2,14,0.00
2013-3-7,45,32,25,32,26,18,94,81,57,0.00,40.00,2,1,13,0.00
2013-3-8,33,28,25,28,24,20,93,84,63,0.00,40.00,7,3,16,0.00
2013-3-9,46,32,25,30,24,16,93,74,48,0.00,40.00,9,2,21,0.22
2013-3-10,50,39,31,17,11,1,52,32,19,0.00,40.00,9,4,24,0.06
2013-3-11,64,43,32,17,6,-18,41,23,4,0.00,40.00,3,0,10,0.01
2013-3-12,66,47,32,22,14,4,51,29,15,0.00,40.00,6,1,12,0.00
2013-3-13,72,51,34,22,16,10,53,28,10,0.00,40.00,4,1,13,0.00
2013-3-14,77,51,39,25,18,12,48,29,12,0.00,40.00,3,0,11,0.00
2013-3-15,76,46,37,26,19,2,55,39,7,0.00,40.00,4,0,12,0.00
2013-3-16,70,49,38,21,16,13,43,28,13,0.00,40.00,3,1,13,0.00
2013-3-17,68,44,35,23,14,-23,61,34,2,0.00,40.00,3,1,13,0.00
2013-3-18,65,45,30,19,12,-1,55,28,13,0.00,40.00,3,0,10,0.00
2013-3-19,65,47,37,28,21,10,58,38,21,0.00,40.00,4,1,15,0.00
2013-3-20,60,47,35,33,28,23,73,52,24,0.00,40.00,5,2,15,0.00
2013-3-21,68,45,36,32,24,15,77,49,18,0.00,40.00,3,1,14,0.00
2013-3-22,62,42,29,25,11,-15,70,33,4,0.00,40.00,6,3,17,0.00
2013-3-23,64,41,26,22,8,-10,43,28,5,0.00,40.00,4,1,13,0.00
2013-3-24,65,41,28,18,14,8,63,37,13,0.00,40.00,3,0,11,0.00
2013-3-25,68,39,30,22,12,-4,48,36,8,0.00,40.00,4,0,12,0.00
2013-3-26,67,46,32,25,15,-7,55,34,5,0.00,40.00,4,1,12,0.00
2013-3-27,60,45,33,31,26,19,72,49,30,0.00,40.00,7,3,18,0.00
2013-3-28,66,50,37,35,29,26,64,47,25,0.00,40.00,5,2,16,0.00
2013-3-29,69,43,30,35,28,20,82,61,20,0.00,40.00,3,0,11,0.00
2013-3-30,69,48,37,30,25,-100,66,45,19,0.00,40.00,4,1,12,0.00
2013-3-31,58,42,33,37,31,25,77,64,34,0.00,40.00,6,1,20,0.00
2013-4-1,58,38,27,33,26,17,86,65,20,0.00,40.00,4,0,12,0.00
2013-4-2,64,40,24,30,24,20,93,62,21,0.00,40.00,3,0,12,0.00
2013-4-3,70,48,32,33,24,18,69,44,19,0.00,40.00,4,1,13,0.00
2013-4-4,71,47,37,37,24,5,68,46,8,0.00,40.00,6,2,14,0.00
2013-4-5,65,44,34,38,33,16,93,70,24,0.00,40.00,4,1,15,0.00
2013-4-6,65,45,32,30,24,16,83,47,22,0.00,40.00,4,1,16,0.00
2013-4-7,68,46,32,33,26,18,72,48,23,0.00,40.00,4,1,10,0.00
2013-4-8,43,35,30,33,26,14,95,72,33,0.00,40.00,8,4,25,0.03
2013-4-9,52,38,26,28,12,-5,91,44,12,0.00,40.00,6,3,16,0.01
2013-4-10,61,46,33,10,6,-3,34,21,8,0.00,40.00,12,6,29,0.00
2013-4-11,67,42,32,26,17,7,57,37,15,0.00,40.00,4,0,16,0.00
2013-4-12,69,48,34,30,25,20,71,46,18,0.00,40.00,6,1,18,0.00
2013-4-13,67,49,34,23,18,6,59,33,16,0.00,40.00,8,3,19,0.00
2013-4-14,71,51,36,30,23,16,56,35,16,0.00,40.00,5,2,17,0.00
2013-4-15,64,45,39,25,16,0,47,32,9,0.00,40.00,7,3,16,0.00
2013-4-16,48,33,27,28,18,9,82,56,25,0.00,40.00,7,3,21,0.00
2013-4-17,49,36,26,20,7,-3,70,35,12,0.00,40.00,8,3,20,0.00
2013-4-18,53,40,30,4,-2,-9,31,18,8,0.00,40.00,8,5,24,0.00
2013-4-19,67,47,37,11,1,-6,31,15,7,0.00,40.00,4,2,16,0.00
2013-4-20,73,50,32,24,17,11,59,30,11,0.00,40.00,6,2,17,0.00
2013-4-21,79,49,35,24,18,8,46,33,7,0.00,40.00,5,1,15,0.00
2013-4-22,78,52,37,26,17,-1,49,28,8,0.00,40.00,3,0,14,0.00
2013-4-23,67,51,38,28,19,7,54,32,10,0.00,40.00,6,2,17,0.00
2013-4-24,69,49,34,25,19,9,55,34,10,0.00,40.00,6,1,18,0.00
2013-4-25,69,46,32,35,24,6,75,47,9,0.00,40.00,5,1,12,0.00
2013-4-26,71,47,32,22,16,8,59,33,10,0.00,40.00,4,1,13,0.00
2013-4-27,76,50,34,25,16,4,52,32,8,0.00,40.00,5,1,15,0.00
2013-4-28,81,52,37,26,18,7,45,29,8,0.00,40.00,4,0,12,0.00
2013-4-29,79,55,40,23,14,3,37,23,8,0.00,40.00,7,2,17,0.00
2013-4-30,77,58,47,28,19,0,32,22,11,0.00,40.00,4,2,13,0.00
2013-5-1,67,54,39,30,4,-23,55,20,4,0.00,40.00,8,4,26,0.00
2013-5-2,64,53,45,-7,-14,-22,9,6,4,0.00,40.00,9,6,28,0.00
2013-5-3,76,54,40,10,-2,-13,24,11,4,0.00,40.00,4,1,15,0.00
2013-5-4,73,49,34,31,13,1,39,26,6,0.00,40.00,6,2,15,0.00
2013-5-5,51,44,36,35,20,0,80,43,15,0.00,40.00,7,2,19,0.00
2013-5-6,46,39,31,41,35,29,93,86,72,0.00,40.00,6,3,21,0.08
2013-5-7,56,36,28,34,30,26,96,83,38,0.00,40.00,4,1,12,0.01
2013-5-8,60,39,26,39,32,25,95,79,42,0.00,40.00,2,0,9,0.01
2013-5-9,65,43,31,41,34,28,97,77,25,0.00,40.00,5,1,13,0.00
2013-5-10,70,53,36,41,28,-100,95,50,18,0.00,40.00,6,2,17,0.00
2013-5-11,76,57,41,35,26,-100,70,37,15,0.00,40.00,5,2,18,0.00
2013-5-12,80,59,43,34,21,16,50,28,9,0.00,40.00,5,1,14,0.00
2013-5-13,87,57,44,32,26,19,56,35,10,0.00,40.00,6,1,14,0.00
2013-5-14,77,60,50,23,18,0,31,21,5,0.00,40.00,10,2,28,0.00
2013-5-15,76,53,39,35,27,18,61,39,17,0.00,40.00,5,1,14,0.00
2013-5-16,77,50,37,31,8,-100,66,29,3,0.00,40.00,6,2,16,0.00
2013-5-17,67,48,39,37,32,27,88,56,22,0.00,40.00,5,2,15,0.00
2013-5-18,71,47,32,36,29,20,92,57,15,0.00,40.00,4,1,14,0.00
2013-5-19,76,54,34,26,20,15,53,29,12,0.00,40.00,5,1,12,0.00
2013-5-20,74,56,41,23,17,10,49,23,12,0.00,40.00,6,2,17,0.00
2013-5-21,77,54,38,30,19,6,39,26,11,0.00,40.00,5,1,15,0.00
2013-5-22,73,56,46,24,12,-20,38,21,2,0.00,40.00,7,4,18,0.00
2013-5-23,71,55,37,9,-8,-25,20,8,2,0.00,40.00,6,3,15,0.00
2013-5-24,77,52,33,13,-5,-24,21,10,4,0.00,40.00,4,1,10,0.00
2013-5-25,76,57,39,4,-9,-25,17,7,2,0.00,40.00,4,1,11,0.00
2013-5-26,75,53,34,34,20,-4,57,31,10,0.00,40.00,5,1,14,0.00
2013-5-27,77,53,36,37,29,18,71,45,13,0.00,40.00,5,1,13,0.00
2013-5-28,72,54,38,38,31,24,73,45,22,0.00,40.00,6,2,19,0.00
2013-5-29,74,54,35,36,28,6,81,44,8,0.00,40.00,6,2,21,0.00
2013-5-30,82,58,37,35,26,4,63,37,5,0.00,40.00,4,1,11,0.00
2013-5-31,81,62,45,23,17,7,29,19,9,0.00,40.00,7,2,19,0.00
2013-6-1,84,64,48,24,18,8,35,19,7,0.00,40.00,6,2,19,0.00
2013-6-2,85,60,47,34,22,10,37,26,6,0.00,40.00,5,1,15,0.00
2013-6-3,83,61,45,26,13,-4,27,17,5,0.00,40.00,4,1,14,0.00
2013-6-4,83,58,44,18,12,1,29,18,5,0.00,40.00,4,1,11,0.00
2013-6-5,87,60,44,28,13,6,27,18,6,0.00,40.00,6,1,15,0.00
2013-6-6,89,62,48,29,20,17,32,22,8,0.00,40.00,6,1,16,0.00
2013-6-7,87,65,50,29,18,5,31,19,6,0.00,40.00,4,1,13,0.00
2013-6-8,94,68,52,34,24,11,31,21,6,0.00,40.00,4,1,16,0.00
2013-6-9,87,66,51,31,11,-4,25,13,4,0.00,40.00,6,1,18,0.00
2013-6-10,74,60,44,25,15,5,37,17,7,0.00,40.00,9,4,24,0.00
2013-6-11,86,62,44,34,22,14,50,25,8,0.00,40.00,4,1,15,0.00
2013-6-12,85,60,51,31,19,14,29,21,7,0.00,40.00,5,1,18,0.00
2013-6-13,84,55,41,24,14,-4,42,23,5,0.00,40.00,5,1,13,0.00
2013-6-14,83,49,41,12,-2,-14,15,13,2,0.00,40.00,2,0,9,0.00
2013-6-15,79,59,43,5,-9,-16,9,7,2,0.00,40.00,4,1,9,0.00
2013-6-16,84,59,38,21,4,-15,23,13,2,0.00,40.00,3,1,11,0.00
2013-6-17,82,53,38,27,18,6,44,27,6,0.00,40.00,4,0,9,0.00
2013-6-18,85,52,41,28,17,2,54,31,4,0.00,40.00,6,1,17,0.00
2013-6-19,77,54,40,29,17,-5,40,25,4,0.00,40.00,4,1,12,0.00
2013-6-20,62,46,38,22,13,-4,46,29,15,0.00,40.00,0,0,6,0.00
2013-6-22,77,59,50,33,28,25,44,32,20,0.00,40.00,2,0,10,0.00
2013-6-23,55,47,43,32,31,28,62,54,35,0.00,40.00,3,1,12,0.00
2013-6-24,69,58,48,40,37,30,64,47,28,0.00,40.00,9,2,20,0.00
2013-6-25,83,59,44,47,42,37,78,57,25,0.00,40.00,3,0,13,0.00
2013-6-26,81,58,50,45,40,37,76,55,23,0.00,40.00,3,0,9,0.00
2013-6-27,81,59,53,41,37,32,55,45,24,0.00,40.00,4,0,11,0.00
2013-6-28,91,63,54,42,26,7,46,27,13,0.00,40.00,3,0,11,0.00
2013-6-29,89,62,56,37,24,19,33,24,10,0.00,40.00,3,0,10,0.00
2013-6-30,93,72,59,33,28,22,38,22,8,0.00,40.00,4,1,12,0.00
2013-7-1,86,70,60,44,35,27,46,29,16,0.00,40.00,1,0,11,0.00
2013-7-2,88,66,57,40,38,33,52,38,17,0.00,40.00,4,1,13,0.00
2013-7-3,80,64,57,43,39,35,50,40,23,0.00,40.00,2,0,7,0.00
2013-7-4,84,66,58,45,38,30,47,36,20,0.00,40.00,3,1,11,0.00
2013-7-5,71,59,55,47,36,27,57,42,32,0.00,40.00,0,0,5,0.00
2013-7-6,83,68,56,39,29,21,45,25,13,0.00,40.00,2,0,8,0.00
2013-7-7,85,64,53,32,23,14,34,22,14,0.00,40.00,6,1,15,0.00
2013-7-8,78,55,49,36,26,20,45,35,12,0.00,40.00,1,0,11,0.00
2013-7-9,87,62,50,32,26,21,36,27,11,0.00,40.00,2,0,17,0.00
2013-7-10,84,71,60,40,31,-100,31,24,16,0.00,40.00,2,0,11,0.00
2013-7-11,71,64,57,49,42,33,62,44,30,0.00,40.00,2,0,9,0.00
2013-7-12,79,63,52,47,42,32,65,48,27,0.00,40.00,2,0,11,0.00
2013-7-13,83,61,50,40,33,27,49,36,13,0.00,40.00,3,0,11,0.00
2013-7-14,83,66,51,45,37,30,45,35,17,0.00,40.00,3,0,11,0.00
2013-7-15,82,59,52,48,38,31,59,46,23,0.00,40.00,5,0,12,0.00
2013-7-16,69,59,51,29,26,24,34,29,22,0.00,40.00,1,0,12,0.00
2013-7-17,75,54,43,20,12,-5,34,20,11,0.00,40.00,0,0,10,0.00
2013-7-18,77,59,52,26,18,10,28,21,11,0.00,40.00,0,0,4,0.00
2013-7-19,85,66,57,34,24,10,33,22,10,0.00,40.00,3,0,10,0.00
2013-7-20,81,69,61,51,44,30,63,42,23,0.00,40.00,5,1,19,0.02
2013-7-21,72,64,57,59,54,48,96,71,51,0.00,40.00,6,1,20,0.52
2013-7-22,71,62,55,61,57,55,99,87,61,0.00,40.00,3,0,11,1.39
2013-7-23,78,61,51,57,53,50,99,79,44,0.00,40.00,2,0,11,0.07
2013-7-24,83,64,53,55,48,38,88,61,28,0.00,40.00,2,0,9,0.00
2013-7-25,85,67,51,48,44,38,69,48,19,0.00,40.00,5,1,13,0.00
2013-7-26,78,64,55,63,49,34,98,62,31,0.00,40.00,1,0,10,0.48
2013-7-27,79,65,55,56,51,43,98,64,32,0.00,40.00,3,0,10,0.01
2013-7-28,80,58,51,46,40,32,68,53,22,0.00,40.00,4,0,13,0.00
2013-7-29,76,59,48,39,32,25,69,40,15,0.00,40.00,0,0,12,0.00
2013-7-30,73,58,50,45,39,33,62,50,24,0.00,40.00,1,0,10,0.00
2013-7-31,80,60,52,40,32,3,55,37,16,0.00,40.00,4,0,15,0.00
2013-8-1,64,57,52,26,10,-10,33,18,6,0.00,40.00,1,0,8,0.00
2013-8-2,62,57,53,27,17,11,26,21,16,0.00,40.00,0,0,3,0.00
2013-8-3,60,57,55,22,1,-23,26,14,3,0.00,40.00,0,0,6,0.00
2013-8-4,71,59,53,21,12,-10,28,17,5,0.00,40.00,0,0,9,0.00
2013-8-5,61,56,49,24,13,2,27,19,12,0.00,40.00,0,0,4,0.00
2013-8-6,77,55,49,25,19,13,28,25,11,0.00,40.00,3,0,11,0.00
2013-8-7,76,60,52,25,17,8,25,19,13,0.00,40.00,6,2,15,0.00
2013-8-8,75,58,52,29,20,12,32,23,11,0.00,40.00,6,2,16,0.00
2013-8-9,73,59,46,30,19,6,25,21,18,0.00,40.00,2,1,11,0.00
2013-8-10,68,54,48,23,20,16,32,27,17,0.00,40.00,0,0,10,0.00
2013-8-11,75,52,42,28,24,19,42,33,17,0.00,40.00,2,0,10,0.00
2013-8-12,79,53,45,31,26,17,46,37,13,0.00,40.00,2,0,10,0.00
2013-8-13,84,59,45,33,26,16,46,31,8,0.00,40.00,5,1,12,0.00
2013-8-14,86,57,48,30,24,16,42,29,9,0.00,40.00,4,0,11,0.00
2013-8-15,81,52,53,42,17,-100,49,34,16,0.00,40.00,5,1,12,0.00
2013-8-16,82,61,54,45,38,-100,58,47,25,0.00,40.00,4,0,10,0.00
2013-8-17,88,66,58,43,37,-100,53,37,18,0.00,40.00,4,1,14,0.00
2013-8-18,81,68,59,49,45,42,61,44,29,0.00,40.00,4,0,16,0.00
2013-8-19,81,65,57,52,42,-100,66,49,30,0.00,40.00,4,1,14,0.00
2013-8-20,84,61,53,46,35,-100,67,45,12,0.00,40.00,4,0,11,0.00
2013-8-21,85,65,55,42,37,32,50,37,17,0.00,40.00,4,1,12,0.00
2013-8-22,84,66,54,45,38,34,55,38,19,0.00,40.00,5,1,14,0.00
2013-8-23,80,61,49,44,36,25,63,43,13,0.00,40.00,7,1,15,0.00
2013-8-24,80,63,56,41,28,-100,50,30,18,0.00,40.00,6,1,15,0.00
2013-8-25,79,60,52,46,41,35,69,51,27,0.00,40.00,6,1,14,0.00
2013-8-26,68,58,50,57,50,42,90,74,56,0.00,40.00,1,0,6,0.00
2013-8-27,73,56,48,54,50,45,92,80,51,0.00,40.00,3,0,8,0.00
2013-8-28,79,66,60,51,50,48,66,56,37,0.00,40.00,4,1,12,0.00
2013-8-29,74,63,53,59,52,46,83,68,43,0.00,40.00,2,0,9,0.10
2013-8-30,75,61,53,64,57,50,98,87,57,0.00,40.00,3,0,9,0.21
2013-8-31,75,62,57,60,54,-100,98,80,52,0.00,40.00,5,1,11,0.03
2013-9-1,75,58,52,53,47,43,88,68,34,0.00,40.00,2,0,10,0.00
2013-9-2,80,60,51,51,47,43,80,63,31,0.00,40.00,3,0,11,0.00
2013-9-3,79,64,55,50,48,45,73,58,32,0.00,40.00,3,0,11,0.00
2013-9-4,79,64,54,55,49,46,75,60,36,0.00,40.00,3,0,12,0.00
2013-9-5,77,61,53,50,47,44,81,64,31,0.00,40.00,4,1,12,0.00
2013-9-6,82,66,54,46,44,40,68,48,24,0.00,40.00,4,1,13,0.00
2013-9-7,71,59,52,57,47,-100,87,67,42,0.00,40.00,2,0,8,0.03
2013-9-8,78,57,47,49,41,34,78,59,20,0.00,40.00,4,0,13,0.17
2013-9-9,77,60,49,52,47,40,96,66,33,0.00,40.00,4,0,13,0.25
2013-9-10,72,53,45,43,40,38,78,64,31,0.00,40.00,4,0,10,0.00
2013-9-11,70,51,43,39,36,34,74,59,29,0.00,40.00,0,0,10,0.00
2013-9-12,69,51,45,39,32,25,66,51,19,0.00,40.00,1,0,11,0.00
2013-9-13,82,56,46,34,29,24,50,37,17,0.00,40.00,3,0,12,0.00
2013-9-14,82,61,49,39,33,-100,55,40,19,0.00,40.00,4,0,12,0.00
2013-9-15,82,60,50,40,36,34,57,45,19,0.00,40.00,3,0,10,0.00
2013-9-16,81,58,48,37,35,30,56,45,18,0.00,40.00,5,0,12,0.00
2013-9-17,62,60,58,30,28,23,32,29,24,0.00,40.00,2,1,13,0.00
2013-9-18,56,51,46,23,14,1,34,24,13,0.00,40.00,0,0,9,0.00
2013-9-19,78,61,48,24,19,15,38,21,12,0.00,40.00,5,2,17,0.00
2013-9-20,56,49,42,29,24,21,43,38,32,0.00,40.00,0,0,7,0.00
2013-9-21,64,50,45,37,22,-100,72,44,10,0.00,40.00,7,5,21,0.00
2013-9-22,64,45,31,38,27,10,92,58,15,0.00,40.00,8,2,15,0.00
2013-9-23,77,57,44,22,18,10,38,23,13,0.00,40.00,5,2,15,0.00
2013-9-24,70,49,40,29,23,19,45,38,21,0.00,40.00,5,1,12,0.00
2013-9-25,68,52,48,31,21,14,39,30,15,0.00,40.00,8,2,21,0.00
2013-9-26,56,41,28,35,25,11,88,58,18,0.00,40.00,5,2,17,0.00
2013-9-27,60,40,26,22,16,9,77,41,17,0.00,40.00,5,2,15,0.00
2013-9-28,67,45,39,16,9,-100,34,25,13,0.00,40.00,3,0,12,0.00
2013-9-29,69,45,35,15,12,8,36,28,9,0.00,40.00,1,0,10,0.00
2013-9-30,77,50,39,19,14,8,37,26,7,0.00,40.00,3,0,10,0.00
2013-10-1,69,57,51,34,32,30,52,40,25,0.00,40.00,2,1,12,0.00
2013-10-2,65,47,40,31,29,25,65,51,23,0.00,40.00,5,1,11,0.00
2013-10-3,57,46,40,27,17,2,47,32,16,0.00,40.00,3,0,10,0.00
2013-10-4,57,46,39,12,8,2,28,22,13,0.00,40.00,8,4,23,0.00
2013-10-5,59,49,40,15,7,-4,33,19,10,0.00,40.00,9,6,29,0.00
2013-10-6,68,50,40,6,-5,-24,23,11,4,0.00,40.00,7,2,18,0.00
2013-10-7,53,45,38,16,4,-22,32,20,6,0.00,40.00,1,0,9,0.00
2013-10-8,40,37,34,21,16,10,51,42,32,0.00,40.00,0,0,0,0.00
2013-10-9,42,35,28,34,30,25,95,85,54,0.00,40.00,7,3,22,0.00
2013-10-10,47,31,20,34,27,18,94,86,61,0.00,40.00,1,0,8,0.51
2013-10-11,55,35,29,28,26,23,92,72,34,0.00,40.00,2,0,9,0.01
2013-10-12,62,38,31,33,26,-100,86,68,29,0.00,40.00,2,0,9,0.01
2013-10-13,52,38,32,27,25,21,83,62,34,0.00,40.00,3,0,11,0.00
2013-10-14,59,46,39,27,22,11,52,39,27,0.00,40.00,5,2,18,0.00
2013-10-15,60,46,38,22,16,7,43,31,22,0.00,40.00,5,2,14,0.00
2013-10-16,56,40,33,17,13,5,44,34,17,0.00,40.00,5,1,19,0.00
2013-10-17,65,38,30,18,11,6,48,34,14,0.00,40.00,2,0,9,0.00
2013-10-18,66,50,34,18,10,-5,49,22,12,0.00,40.00,5,1,13,0.00
2013-10-19,72,45,37,11,-3,-100,33,17,5,0.00,40.00,3,0,8,0.00
2013-10-20,42,36,34,11,5,-1,30,27,22,0.00,40.00,0,0,0,0.00
2013-10-21,70,48,35,14,8,1,34,21,9,0.00,40.00,4,1,11,0.00
2013-10-22,68,49,37,18,12,5,40,23,12,0.00,40.00,5,1,17,0.00
2013-10-23,68,48,35,19,14,10,39,28,14,0.00,40.00,5,1,14,0.00
2013-10-24,68,48,35,23,14,9,45,28,13,0.00,40.00,5,1,12,0.00
2013-10-25,69,48,35,22,13,10,39,27,11,0.00,40.00,5,1,14,0.00
2013-10-26,69,50,36,22,15,-100,41,27,15,0.00,40.00,5,1,15,0.00
2013-10-27,67,46,34,28,20,16,51,38,15,0.00,40.00,10,3,25,0.00
2013-10-28,42,36,31,38,30,-100,95,84,61,0.00,40.00,10,7,30,0.07
2013-10-29,41,32,28,32,28,26,94,87,68,0.00,40.00,4,1,14,0.05
2013-10-30,54,35,28,30,27,23,94,77,32,0.00,40.00,1,0,9,0.05
2013-10-31,60,42,35,19,9,-5,40,26,15,0.00,40.00,3,1,9,0.00
2013-11-1,50,42,38,21,18,15,45,38,30,0.00,40.00,1,0,9,0.00
2013-11-2,60,39,31,21,11,-100,60,37,17,0.00,40.00,3,1,9,0.00
2013-11-3,62,40,29,26,18,9,65,44,14,0.00,40.00,3,1,10,0.00
2013-11-4,49,38,32,34,21,14,70,51,37,0.00,40.00,6,2,18,0.00
2013-11-5,48,38,31,20,8,-18,60,33,6,0.00,40.00,8,3,20,0.00
2013-11-6,60,46,38,10,0,-18,28,16,7,0.00,40.00,4,0,13,0.00
2013-11-7,64,44,33,18,11,7,37,28,14,0.00,40.00,2,0,9,0.00
2013-11-8,63,42,33,11,4,-2,32,23,7,0.00,40.00,2,0,9,0.00
2013-11-9,65,42,32,7,0,-100,30,20,9,0.00,40.00,2,0,10,0.00
2013-11-10,57,42,37,17,6,-1,35,23,13,0.00,40.00,0,0,5,0.00
2013-11-11,66,51,40,20,6,-7,21,16,9,0.00,40.00,2,1,11,0.00
2013-11-12,67,51,41,22,12,-2,35,22,10,0.00,40.00,1,0,8,0.00
2013-11-13,66,46,36,19,14,9,39,29,14,0.00,40.00,3,0,11,0.00
2013-11-14,65,47,35,20,15,9,39,29,13,0.00,40.00,5,1,13,0.00
2013-11-15,51,44,26,31,22,16,74,43,31,0.00,40.00,6,2,14,0.00
2013-11-16,27,0,200,-100,-100,-100,0,0,100,0.00,40.00,0,0,4,0.00
2013-11-17,51,35,26,33,27,22,88,75,42,0.00,40.00,2,0,8,0.00
2013-11-18,56,38,28,36,26,18,80,63,38,0.00,40.00,3,0,9,0.00
2013-11-19,56,46,37,24,18,10,50,34,17,0.00,40.00,1,0,8,0.00
2013-11-20,54,40,32,39,30,21,96,71,49,0.00,40.00,3,0,13,0.00
2013-11-21,42,37,32,38,34,30,96,92,81,0.00,40.00,4,1,12,0.17
2013-11-22,34,30,27,32,28,25,96,90,76,0.00,40.00,3,0,10,0.06
2013-11-23,34,30,27,30,25,-100,95,89,76,0.00,40.00,2,0,8,0.03
2013-11-24,41,31,27,33,28,25,93,87,73,0.00,40.00,4,1,9,0.17
2013-11-25,49,39,31,29,22,13,85,53,29,0.00,40.00,7,3,21,0.18
2013-11-26,55,42,36,31,22,16,69,45,25,0.00,40.00,7,2,21,0.03
2013-11-27,52,38,29,28,24,19,85,60,36,0.00,40.00,2,0,8,0.02
2013-11-28,46,35,27,27,23,19,85,64,40,0.00,40.00,4,0,11,0.00
2013-11-29,47,36,27,36,28,23,93,75,45,0.00,40.00,3,0,9,0.01
2013-11-30,46,35,29,32,25,-100,95,71,49,0.00,40.00,3,0,10,0.01
2013-12-1,54,40,29,25,14,-6,70,42,11,0.00,40.00,6,1,15,0.00
2013-12-2,58,45,37,18,10,-3,40,25,12,0.00,40.00,2,0,11,0.00
2013-12-3,55,43,35,36,21,7,95,48,21,0.00,40.00,11,6,29,0.04
2013-12-4,37,26,16,34,18,4,96,74,28,0.00,40.00,9,2,25,0.06
2013-12-5,33,24,11,21,17,7,90,76,48,0.00,40.00,3,1,13,0.01
2013-12-6,32,22,11,22,15,7,91,78,48,0.00,40.00,3,1,13,0.01
2013-12-7,34,26,17,28,20,-100,93,84,63,0.00,40.00,11,5,28,0.00
2013-12-8,30,17,11,20,9,-2,86,70,50,0.00,40.00,1,0,8,0.01
2013-12-9,31,24,13,3,-10,-23,63,27,9,0.00,40.00,12,5,31,0.01
2013-12-10,42,34,29,-1,-5,-12,23,18,12,0.00,40.00,4,1,11,0.00
2013-12-11,47,33,25,1,-5,-8,24,19,13,0.00,40.00,4,0,10,0.00
2013-12-12,48,33,24,28,18,-9,82,56,15,0.00,40.00,2,0,10,0.00
2013-12-13,49,34,22,12,5,0,56,33,13,0.00,40.00,6,2,17,0.00
2013-12-14,47,38,32,12,3,-100,39,24,14,0.00,40.00,7,4,20,0.00
2013-12-15,60,49,41,15,7,-3,23,18,11,0.00,40.00,6,4,21,0.00
2013-12-16,64,53,43,19,15,4,33,22,15,0.00,40.00,3,1,12,0.00
2013-12-17,65,45,39,26,15,12,36,30,14,0.00,40.00,0,0,8,0.00
2013-12-18,60,50,40,28,16,9,42,27,13,0.00,40.00,1,0,10,0.00
2013-12-19,40,32,27,28,25,19,94,77,51,0.00,40.00,3,1,12,0.00
2013-12-20,37,29,22,27,20,1,94,72,29,0.00,40.00,5,3,14,0.00
2013-12-21,47,34,26,24,17,-100,72,53,34,0.00,40.00,5,2,14,0.15
2013-12-22,52,36,26,26,19,12,75,51,22,0.00,40.00,5,1,20,0.05
2013-12-23,52,40,33,29,21,16,58,46,29,0.00,40.00,4,1,21,0.02
2013-12-24,54,42,37,22,20,10,55,40,19,0.00,40.00,7,2,20,0.01
2013-12-25,48,40,32,19,8,-13,45,30,11,0.00,40.00,7,3,20,0.00
2013-12-26,51,42,36,4,-6,-13,18,13,9,0.00,40.00,6,3,19,0.00
2013-12-27,57,44,34,11,-1,-15,37,17,9,0.00,40.00,5,2,15,0.00
2013-12-28,56,38,33,11,2,-100,38,24,8,0.00,40.00,4,1,14,0.00
2013-12-29,45,36,28,10,1,-27,46,25,8,0.00,40.00,8,3,19,0.00
2013-12-30,57,35,29,3,-11,-30,26,16,4,0.00,40.00,2,0,7,0.00
2013-12-31,59,39,29,9,2,-2,35,23,9,0.00,40.00,3,0,10,0.00
2014-1-1,58,42,32,19,10,1,43,28,18,0.00,40.00,5,1,13,0.00
2014-1-2,59,38,30,24,17,14,54,43,18,0.00,40.00,1,0,8,0.00